Location: Poughquag
(41.6090°N, 73.6820°W)
Time: 07:25:51
(UTC-05:00)

Altair - Pass Details

Date: 06 December 2023
Orbit: 1501 x 1682 km, 47.2° (Epoch: 02 March)

Event Time Altitude Azimuth Distance (km) Brightness Sun altitude
Rises 05:30:52 0° 190° (S) 4,876 10.2 -17.4°
Reaches altitude 10° 05:34:50 10° 177° (S) 3,868 9.8 -16.6°
Maximum altitude 05:42:08 24° 128° (SE) 2,865 9.7 -15.3°
Drops below altitude 10° 05:49:15 10° 80° (E) 3,774 10.6 -14.1°
Sets 05:53:02 0° 67° (ENE) 4,732 10.9 -13.4°
